Time,TemperatureF,DewpointF,PressureIn,WindDirection,WindDirectionDegrees,WindSpeedMPH,WindSpeedGustMPH,Humidity,HourlyPrecipIn,Conditions,Clouds,dailyrainin,SoftwareType,DateUTC
2013-07-03 00:00:00,62.2,60.8,30.01,ESE,104,1.0,10.0,95,0.00,,,0.00,meteohub,2013-07-03 04:00:00,
2013-07-03 00:01:00,62.2,60.8,30.01,ENE,77,3.0,10.0,95,0.00,,,0.00,meteohub,2013-07-03 04:01:00,
2013-07-03 00:03:00,62.2,60.8,30.01,ENE,59,2.0,10.0,95,0.00,,,0.00,meteohub,2013-07-03 04:03:00,
2013-07-03 00:04:00,62.2,60.8,30.01,ENE,58,2.0,10.0,95,0.00,,,0.00,meteohub,2013-07-03 04:04:00,
2013-07-03 00:09:00,62.2,60.8,30.01,NE,48,3.0,6.0,95,0.00,,,0.00,meteohub,2013-07-03 04:09:00,
2013-07-03 00:14:00,62.2,60.8,30.01,East,81,5.0,6.0,95,0.03,,,0.03,meteohub,2013-07-03 04:14:00,
2013-07-03 00:19:00,62.2,60.8,30.01,ESE,115,7.0,11.0,95,0.07,,,0.07,meteohub,2013-07-03 04:19:00,
2013-07-03 00:24:00,62.1,60.6,30.01,East,98,5.0,13.0,95,0.07,,,0.07,meteohub,2013-07-03 04:24:00,
2013-07-03 00:29:00,62.1,60.6,30.01,SE,125,2.0,13.0,95,0.07,,,0.07,meteohub,2013-07-03 04:29:00,
2013-07-03 00:31:00,61.9,60.4,30.01,ESE,105,4.0,13.0,95,0.07,,,0.07,meteohub,2013-07-03 04:31:00,
2013-07-03 00:32:00,61.9,60.4,30.01,ESE,102,3.0,13.0,95,0.07,,,0.07,meteohub,2013-07-03 04:32:00,
2013-07-03 00:37:00,61.5,60.1,30.01,East,100,2.0,8.0,95,0.07,,,0.07,meteohub,2013-07-03 04:37:00,
2013-07-03 00:42:00,61.5,60.1,30.01,NE,49,4.0,11.0,95,0.07,,,0.07,meteohub,2013-07-03 04:42:00,
2013-07-03 00:45:00,61.3,59.9,30.01,SE,135,2.0,11.0,95,0.07,,,0.07,meteohub,2013-07-03 04:45:00,
2013-07-03 00:46:00,61.3,59.9,30.01,SE,129,3.0,11.0,95,0.07,,,0.07,meteohub,2013-07-03 04:46:00,
2013-07-03 00:51:00,61.3,59.9,30.01,SE,129,3.0,6.0,95,0.07,,,0.07,meteohub,2013-07-03 04:51:00,
2013-07-03 00:54:00,61.3,59.9,30.01,NE,51,2.0,6.0,95,0.07,,,0.07,meteohub,2013-07-03 04:54:00,
2013-07-03 00:59:00,61.3,59.9,30.00,ENE,62,2.0,6.0,95,0.07,,,0.07,meteohub,2013-07-03 04:59:00,
2013-07-03 01:04:00,61.3,59.9,30.00,ENE,59,1.0,8.0,95,0.07,,,0.07,meteohub,2013-07-03 05:04:00,
2013-07-03 01:07:00,61.3,59.9,30.00,ENE,59,1.0,8.0,95,0.07,,,0.07,meteohub,2013-07-03 05:07:00,
2013-07-03 01:12:00,61.3,59.9,30.00,ENE,60,2.0,6.0,95,0.01,,,0.07,meteohub,2013-07-03 05:12:00,
2013-07-03 01:17:00,61.2,60.1,30.00,NE,41,7.0,7.0,96,0.00,,,0.07,meteohub,2013-07-03 05:17:00,
2013-07-03 01:19:00,61.3,59.9,30.00,East,99,2.0,6.0,95,0.00,,,0.07,meteohub,2013-07-03 05:19:00,
2013-07-03 01:24:00,61.3,59.9,30.00,SE,135,4.0,11.0,95,0.00,,,0.07,meteohub,2013-07-03 05:24:00,
2013-07-03 01:29:00,61.3,59.9,30.00,SE,131,2.0,11.0,95,0.00,,,0.07,meteohub,2013-07-03 05:29:00,
2013-07-03 01:34:00,61.3,60.3,30.00,SE,143,1.0,11.0,96,0.00,,,0.07,meteohub,2013-07-03 05:34:00,
2013-07-03 01:39:00,61.3,60.3,30.00,ESE,120,2.0,4.0,96,0.00,,,0.07,meteohub,2013-07-03 05:39:00,
2013-07-03 01:45:00,61.3,60.3,30.00,ESE,115,4.0,5.0,96,0.00,,,0.07,meteohub,2013-07-03 05:45:00,
2013-07-03 01:50:00,61.2,60.1,30.00,East,99,3.0,5.0,96,0.00,,,0.07,meteohub,2013-07-03 05:50:00,
2013-07-03 01:54:00,61.2,60.1,30.00,South,187,2.0,5.0,96,0.00,,,0.07,meteohub,2013-07-03 05:54:00,
2013-07-03 01:57:00,61.2,60.1,30.00,East,91,1.0,9.0,96,0.00,,,0.07,meteohub,2013-07-03 05:57:00,
2013-07-03 01:58:00,61.2,60.1,30.00,SE,125,2.0,9.0,96,0.00,,,0.07,meteohub,2013-07-03 05:58:00,
2013-07-03 02:03:00,61.2,60.1,30.00,ENE,57,2.0,9.0,96,0.00,,,0.07,meteohub,2013-07-03 06:03:00,
2013-07-03 02:08:00,61.2,60.1,30.00,SSE,152,0.0,9.0,96,0.00,,,0.07,meteohub,2013-07-03 06:08:00,
2013-07-03 02:13:00,61.2,60.1,30.00,ESE,115,1.0,9.0,96,0.00,,,0.07,meteohub,2013-07-03 06:13:00,
2013-07-03 02:16:00,61.0,59.9,30.00,SSE,153,2.0,5.0,96,0.00,,,0.07,meteohub,2013-07-03 06:16:00,
2013-07-03 02:17:00,61.0,59.9,30.00,East,80,3.0,5.0,96,0.00,,,0.07,meteohub,2013-07-03 06:17:00,
2013-07-03 02:22:00,61.0,59.9,29.99,SE,131,3.0,6.0,96,0.00,,,0.07,meteohub,2013-07-03 06:22:00,
2013-07-03 02:24:00,61.0,59.9,29.99,SE,142,0.0,6.0,96,0.00,,,0.07,meteohub,2013-07-03 06:24:00,
2013-07-03 02:26:00,61.0,59.9,29.99,ESE,120,2.0,6.0,96,0.00,,,0.07,meteohub,2013-07-03 06:26:00,
2013-07-03 02:31:00,61.0,59.9,29.99,East,98,3.0,6.0,96,0.00,,,0.07,meteohub,2013-07-03 06:31:00,
2013-07-03 02:32:00,61.0,59.9,29.99,East,83,3.0,6.0,96,0.00,,,0.07,meteohub,2013-07-03 06:32:00,
2013-07-03 02:37:00,61.0,59.9,29.99,WNW,284,0.0,5.0,96,0.00,,,0.07,meteohub,2013-07-03 06:37:00,
2013-07-03 02:42:00,61.0,59.9,29.99,ENE,67,2.0,5.0,96,0.00,,,0.07,meteohub,2013-07-03 06:42:00,
2013-07-03 02:43:00,61.0,59.9,29.99,East,98,1.0,5.0,96,0.00,,,0.07,meteohub,2013-07-03 06:43:00,
2013-07-03 02:48:00,61.2,60.1,29.99,SSE,160,2.0,6.0,96,0.00,,,0.07,meteohub,2013-07-03 06:48:00,
2013-07-03 02:53:00,61.2,60.1,29.99,ENE,58,4.0,10.0,96,0.00,,,0.07,meteohub,2013-07-03 06:53:00,
2013-07-03 02:55:00,61.2,60.1,29.99,ESE,103,4.0,10.0,96,0.00,,,0.07,meteohub,2013-07-03 06:55:00,
2013-07-03 03:00:00,61.3,60.3,29.99,ENE,68,4.0,10.0,96,0.00,,,0.07,meteohub,2013-07-03 07:00:00,
2013-07-03 03:05:00,61.3,60.3,29.99,SE,125,2.0,8.0,96,0.00,,,0.07,meteohub,2013-07-03 07:05:00,
2013-07-03 03:11:00,61.3,60.3,29.99,ESE,120,2.0,8.0,96,0.00,,,0.07,meteohub,2013-07-03 07:11:00,
2013-07-03 03:16:00,61.3,60.3,29.99,ESE,115,1.0,7.0,96,0.00,,,0.07,meteohub,2013-07-03 07:16:00,
2013-07-03 03:21:00,61.3,60.3,29.99,South,185,2.0,6.0,96,0.00,,,0.07,meteohub,2013-07-03 07:21:00,
2013-07-03 03:26:00,61.3,60.3,29.99,SSE,156,1.0,6.0,96,0.00,,,0.07,meteohub,2013-07-03 07:26:00,
2013-07-03 03:31:00,61.3,60.3,29.99,SSW,206,0.0,4.0,96,0.00,,,0.07,meteohub,2013-07-03 07:31:00,
2013-07-03 03:36:00,61.3,60.3,29.99,NE,54,1.0,4.0,96,0.00,,,0.07,meteohub,2013-07-03 07:36:00,
2013-07-03 03:38:00,61.3,60.3,29.99,SW,233,2.0,4.0,96,0.00,,,0.07,meteohub,2013-07-03 07:38:00,
2013-07-03 03:43:00,61.3,60.3,29.98,ENE,66,2.0,4.0,96,0.00,,,0.07,meteohub,2013-07-03 07:43:00,
2013-07-03 03:49:00,61.3,60.3,29.98,ENE,64,2.0,4.0,96,0.00,,,0.07,meteohub,2013-07-03 07:49:00,
2013-07-03 03:51:00,61.3,60.3,29.98,East,101,2.0,4.0,96,0.00,,,0.07,meteohub,2013-07-03 07:51:00,
2013-07-03 03:56:00,61.3,60.3,29.98,ENE,71,5.0,6.0,96,0.00,,,0.07,meteohub,2013-07-03 07:56:00,
2013-07-03 04:01:00,61.3,59.9,29.99,ENE,73,2.0,6.0,95,0.00,,,0.07,meteohub,2013-07-03 08:01:00,
2013-07-03 04:02:00,61.3,59.9,29.99,East,94,1.0,6.0,95,0.00,,,0.07,meteohub,2013-07-03 08:02:00,
2013-07-03 04:06:00,61.3,59.9,29.99,SSE,158,1.0,6.0,95,0.00,,,0.07,meteohub,2013-07-03 08:06:00,
2013-07-03 04:09:00,61.3,59.9,29.99,East,95,2.0,6.0,95,0.00,,,0.07,meteohub,2013-07-03 08:09:00,
2013-07-03 04:14:00,61.3,60.3,29.99,SE,131,1.0,5.0,96,0.00,,,0.07,meteohub,2013-07-03 08:14:00,
2013-07-03 04:18:00,61.3,60.3,29.99,NE,48,1.0,5.0,96,0.00,,,0.07,meteohub,2013-07-03 08:18:00,
2013-07-03 04:23:00,61.3,60.3,29.99,ESE,115,1.0,5.0,96,0.00,,,0.07,meteohub,2013-07-03 08:23:00,
2013-07-03 04:28:00,61.3,60.3,29.99,SSW,197,2.0,5.0,96,0.00,,,0.07,meteohub,2013-07-03 08:28:00,
2013-07-03 04:34:00,61.5,60.4,29.99,East,96,1.0,4.0,96,0.00,,,0.07,meteohub,2013-07-03 08:34:00,
2013-07-03 04:39:00,61.5,60.4,29.99,SSE,154,2.0,5.0,96,0.00,,,0.07,meteohub,2013-07-03 08:39:00,
2013-07-03 04:44:00,61.5,60.4,29.99,East,94,1.0,6.0,96,0.00,,,0.07,meteohub,2013-07-03 08:44:00,
2013-07-03 04:46:00,61.7,60.6,29.99,East,93,2.0,6.0,96,0.00,,,0.07,meteohub,2013-07-03 08:46:00,
2013-07-03 04:51:00,61.7,60.6,29.99,ENE,77,3.0,5.0,96,0.00,,,0.07,meteohub,2013-07-03 08:51:00,
2013-07-03 04:55:00,61.7,60.6,29.99,East,93,2.0,5.0,96,0.00,,,0.07,meteohub,2013-07-03 08:55:00,
2013-07-03 04:56:00,61.9,60.8,29.99,West,281,0.0,5.0,96,0.00,,,0.07,meteohub,2013-07-03 08:56:00,
2013-07-03 05:02:00,61.9,60.8,29.99,East,94,3.0,5.0,96,0.00,,,0.07,meteohub,2013-07-03 09:02:00,
2013-07-03 05:07:00,61.9,60.8,29.99,East,91,3.0,5.0,96,0.00,,,0.07,meteohub,2013-07-03 09:07:00,
2013-07-03 05:12:00,62.1,60.6,29.99,East,95,1.0,7.0,95,0.00,,,0.07,meteohub,2013-07-03 09:12:00,
2013-07-03 05:17:00,62.1,60.6,29.99,ESE,104,0.0,7.0,95,0.00,,,0.07,meteohub,2013-07-03 09:17:00,
2013-07-03 05:22:00,61.9,60.8,29.99,ESE,111,0.0,6.0,96,0.00,,,0.07,meteohub,2013-07-03 09:22:00,
2013-07-03 05:27:00,61.9,60.8,29.99,SE,140,1.0,4.0,96,0.00,,,0.07,meteohub,2013-07-03 09:27:00,
2013-07-03 05:32:00,61.9,60.8,29.99,SE,140,1.0,4.0,96,0.00,,,0.07,meteohub,2013-07-03 09:32:00,
2013-07-03 05:37:00,61.9,60.8,29.99,East,98,1.0,6.0,96,0.00,,,0.07,meteohub,2013-07-03 09:37:00,
2013-07-03 05:41:00,62.1,61.0,29.99,East,96,1.0,6.0,96,0.00,,,0.07,meteohub,2013-07-03 09:41:00,
2013-07-03 05:46:00,62.1,61.0,30.00,SSE,154,3.0,6.0,96,0.00,,,0.07,meteohub,2013-07-03 09:46:00,
2013-07-03 05:49:00,62.2,61.2,30.00,ESE,115,5.0,6.0,96,0.00,,,0.07,meteohub,2013-07-03 09:49:00,
2013-07-03 05:50:00,62.2,61.2,30.00,SSE,150,3.0,6.0,96,0.00,,,0.07,meteohub,2013-07-03 09:50:00,
2013-07-03 05:55:00,62.2,61.2,30.00,East,80,3.0,6.0,96,0.00,,,0.07,meteohub,2013-07-03 09:55:00,
2013-07-03 06:00:00,62.2,61.2,30.00,SE,145,4.0,6.0,96,0.00,,,0.07,meteohub,2013-07-03 10:00:00,
2013-07-03 06:04:00,62.2,61.2,30.00,ESE,115,2.0,6.0,96,0.00,,,0.07,meteohub,2013-07-03 10:04:00,
2013-07-03 06:05:00,62.2,61.2,30.00,SE,125,3.0,6.0,96,0.00,,,0.07,meteohub,2013-07-03 10:05:00,
2013-07-03 06:10:00,62.2,61.2,30.00,East,81,2.0,9.0,96,0.01,,,0.08,meteohub,2013-07-03 10:10:00,
2013-07-03 06:15:00,62.2,61.2,30.00,SE,131,1.0,9.0,96,0.01,,,0.08,meteohub,2013-07-03 10:15:00,
2013-07-03 06:20:00,62.2,61.2,30.00,East,99,3.0,6.0,96,0.02,,,0.09,meteohub,2013-07-03 10:20:00,
2013-07-03 06:25:00,62.2,61.3,30.00,East,84,3.0,7.0,97,0.02,,,0.09,meteohub,2013-07-03 10:25:00,
2013-07-03 06:30:00,62.2,61.3,30.00,SE,125,2.0,10.0,97,0.02,,,0.09,meteohub,2013-07-03 10:30:00,
2013-07-03 06:31:00,62.2,61.3,30.00,East,98,2.0,10.0,97,0.02,,,0.09,meteohub,2013-07-03 10:31:00,
2013-07-03 06:36:00,62.2,61.3,30.00,ENE,66,2.0,10.0,97,0.02,,,0.09,meteohub,2013-07-03 10:36:00,
2013-07-03 06:41:00,62.2,61.3,30.00,NE,48,2.0,10.0,97,0.02,,,0.09,meteohub,2013-07-03 10:41:00,
2013-07-03 06:46:00,62.2,61.3,30.00,East,91,2.0,8.0,97,0.02,,,0.09,meteohub,2013-07-03 10:46:00,
2013-07-03 06:49:00,62.2,61.3,30.00,SE,131,2.0,8.0,97,0.02,,,0.09,meteohub,2013-07-03 10:49:00,
2013-07-03 06:54:00,62.2,61.3,30.00,ESE,106,2.0,8.0,97,0.02,,,0.09,meteohub,2013-07-03 10:54:00,
2013-07-03 06:55:00,62.2,61.3,30.00,ESE,106,5.0,10.0,97,0.04,,,0.11,meteohub,2013-07-03 10:55:00,
2013-07-03 06:57:00,62.2,61.3,30.00,East,81,4.0,10.0,97,0.04,,,0.11,meteohub,2013-07-03 10:57:00,
2013-07-03 07:02:00,62.4,61.5,30.00,SE,134,1.0,11.0,97,0.04,,,0.11,meteohub,2013-07-03 11:02:00,
2013-07-03 07:07:00,62.4,61.5,30.00,East,100,7.0,11.0,97,0.03,,,0.11,meteohub,2013-07-03 11:07:00,
2013-07-03 07:09:00,62.4,61.5,30.00,ENE,77,3.0,11.0,97,0.03,,,0.11,meteohub,2013-07-03 11:09:00,
2013-07-03 07:11:00,62.4,61.5,30.00,ENE,65,3.0,11.0,97,0.03,,,0.11,meteohub,2013-07-03 11:11:00,
2013-07-03 07:16:00,62.4,61.5,30.01,ESE,106,6.0,8.0,97,0.03,,,0.12,meteohub,2013-07-03 11:16:00,
2013-07-03 07:19:00,62.4,61.5,30.01,SE,129,6.0,8.0,97,0.03,,,0.12,meteohub,2013-07-03 11:19:00,
2013-07-03 07:23:00,62.4,61.5,30.01,ESE,115,3.0,9.0,97,0.03,,,0.12,meteohub,2013-07-03 11:23:00,
2013-07-03 07:25:00,62.4,61.5,30.01,ENE,66,2.0,9.0,97,0.03,,,0.12,meteohub,2013-07-03 11:25:00,
2013-07-03 07:30:00,62.4,61.5,30.01,ESE,115,2.0,8.0,97,0.04,,,0.13,meteohub,2013-07-03 11:30:00,
2013-07-03 07:35:00,62.4,61.5,30.01,East,100,2.0,8.0,97,0.04,,,0.13,meteohub,2013-07-03 11:35:00,
2013-07-03 07:40:00,62.4,61.5,30.01,SSE,152,2.0,8.0,97,0.04,,,0.13,meteohub,2013-07-03 11:40:00,
2013-07-03 07:45:00,62.4,61.5,30.01,East,82,3.0,8.0,97,0.04,,,0.13,meteohub,2013-07-03 11:45:00,
2013-07-03 07:51:00,62.4,61.5,30.01,SE,130,0.0,8.0,97,0.04,,,0.13,meteohub,2013-07-03 11:51:00,
2013-07-03 07:56:00,62.4,61.5,30.02,ESE,115,1.0,5.0,97,0.02,,,0.13,meteohub,2013-07-03 11:56:00,
2013-07-03 07:59:00,62.4,61.5,30.02,SE,132,1.0,5.0,97,0.02,,,0.13,meteohub,2013-07-03 11:59:00,
2013-07-03 08:02:00,62.6,61.7,30.02,ESE,105,2.0,5.0,97,0.02,,,0.13,meteohub,2013-07-03 12:02:00,
2013-07-03 08:08:00,62.6,61.7,30.02,SE,125,2.0,5.0,97,0.02,,,0.13,meteohub,2013-07-03 12:08:00,
2013-07-03 08:12:00,62.4,61.5,30.02,NE,46,3.0,7.0,97,0.01,,,0.13,meteohub,2013-07-03 12:12:00,
2013-07-03 08:17:00,62.4,61.5,30.02,SE,142,3.0,7.0,97,0.01,,,0.13,meteohub,2013-07-03 12:17:00,
2013-07-03 08:18:00,62.4,61.5,30.02,ENE,77,1.0,7.0,97,0.01,,,0.13,meteohub,2013-07-03 12:18:00,
2013-07-03 08:21:00,62.4,61.5,30.02,ENE,58,4.0,8.0,97,0.01,,,0.13,meteohub,2013-07-03 12:21:00,
2013-07-03 08:26:00,62.4,61.5,30.03,East,91,2.0,8.0,97,0.00,,,0.13,meteohub,2013-07-03 12:26:00,
2013-07-03 08:31:00,62.4,61.5,30.03,ENE,69,4.0,9.0,97,0.05,,,0.18,meteohub,2013-07-03 12:31:00,
2013-07-03 08:36:00,62.6,61.7,30.03,East,101,1.0,9.0,97,0.06,,,0.19,meteohub,2013-07-03 12:36:00,
2013-07-03 08:41:00,62.4,61.5,30.03,ESE,120,5.0,5.0,97,0.07,,,0.20,meteohub,2013-07-03 12:41:00,
2013-07-03 08:46:00,62.4,61.5,30.03,NE,54,4.0,11.0,97,0.13,,,0.26,meteohub,2013-07-03 12:46:00,
2013-07-03 08:51:00,62.2,61.3,30.03,ENE,77,8.0,11.0,97,0.15,,,0.28,meteohub,2013-07-03 12:51:00,
2013-07-03 08:56:00,62.4,61.5,30.04,SSE,152,2.0,20.0,97,0.15,,,0.28,meteohub,2013-07-03 12:56:00,
2013-07-03 09:02:00,62.4,61.5,30.04,East,95,3.0,20.0,97,0.15,,,0.28,meteohub,2013-07-03 13:02:00,
2013-07-03 09:07:00,62.4,61.5,30.04,ENE,63,4.0,20.0,97,0.15,,,0.28,meteohub,2013-07-03 13:07:00,
2013-07-03 09:12:00,62.4,61.5,30.04,NE,46,5.0,16.0,97,0.15,,,0.28,meteohub,2013-07-03 13:12:00,
2013-07-03 09:17:00,62.6,61.7,30.04,ENE,64,4.0,11.0,97,0.15,,,0.28,meteohub,2013-07-03 13:17:00,
2013-07-03 09:22:00,62.6,61.7,30.04,SE,131,5.0,16.0,97,0.15,,,0.28,meteohub,2013-07-03 13:22:00,
2013-07-03 09:25:00,62.6,61.7,30.04,SE,125,6.0,16.0,97,0.14,,,0.28,meteohub,2013-07-03 13:25:00,
2013-07-03 09:30:00,62.8,61.9,30.03,ENE,77,5.0,16.0,97,0.10,,,0.28,meteohub,2013-07-03 13:30:00,
2013-07-03 09:36:00,63.0,62.1,30.04,ENE,71,3.0,12.0,97,0.09,,,0.28,meteohub,2013-07-03 13:36:00,
2013-07-03 09:37:00,63.0,62.1,30.04,East,81,3.0,12.0,97,0.09,,,0.28,meteohub,2013-07-03 13:37:00,
2013-07-03 09:42:00,63.0,62.1,30.03,SE,144,2.0,11.0,97,0.08,,,0.28,meteohub,2013-07-03 13:42:00,
2013-07-03 09:47:00,63.1,62.2,30.03,ENE,69,1.0,11.0,97,0.01,,,0.28,meteohub,2013-07-03 13:47:00,
2013-07-03 09:52:00,63.1,62.2,30.03,NE,54,2.0,10.0,97,0.00,,,0.28,meteohub,2013-07-03 13:52:00,
2013-07-03 09:57:00,63.1,62.2,30.04,NE,42,5.0,7.0,97,0.00,,,0.28,meteohub,2013-07-03 13:57:00,
2013-07-03 10:02:00,63.1,62.2,30.04,NE,41,8.0,15.0,97,0.00,,,0.28,meteohub,2013-07-03 14:02:00,
2013-07-03 10:06:00,63.1,62.2,30.04,ENE,66,6.0,15.0,97,0.01,,,0.29,meteohub,2013-07-03 14:06:00,
2013-07-03 10:09:00,63.1,62.2,30.04,East,91,2.0,15.0,97,0.01,,,0.29,meteohub,2013-07-03 14:09:00,
2013-07-03 10:15:00,63.3,62.4,30.04,ENE,78,6.0,15.0,97,0.02,,,0.30,meteohub,2013-07-03 14:15:00,
2013-07-03 10:17:00,63.3,62.4,30.04,ESE,120,3.0,11.0,97,0.02,,,0.30,meteohub,2013-07-03 14:17:00,
2013-07-03 10:22:00,63.1,62.2,30.04,SSE,149,3.0,11.0,97,0.02,,,0.30,meteohub,2013-07-03 14:22:00,
2013-07-03 10:27:00,63.0,62.1,30.04,East,92,2.0,9.0,97,0.02,,,0.30,meteohub,2013-07-03 14:27:00,
2013-07-03 10:30:00,63.0,62.1,30.04,ENE,66,2.0,14.0,97,0.10,,,0.38,meteohub,2013-07-03 14:30:00,
2013-07-03 10:35:00,63.0,62.1,30.04,ENE,74,5.0,14.0,97,0.10,,,0.38,meteohub,2013-07-03 14:35:00,
2013-07-03 10:38:00,62.8,61.9,30.04,East,79,2.0,14.0,97,0.10,,,0.38,meteohub,2013-07-03 14:38:00,
2013-07-03 10:41:00,62.8,61.9,30.04,East,81,2.0,17.0,97,0.11,,,0.39,meteohub,2013-07-03 14:41:00,
2013-07-03 10:46:00,62.8,61.9,30.04,SE,135,5.0,18.0,97,0.11,,,0.39,meteohub,2013-07-03 14:46:00,
2013-07-03 10:51:00,62.6,61.7,30.04,East,91,14.0,18.0,97,0.11,,,0.39,meteohub,2013-07-03 14:51:00,
2013-07-03 10:56:00,62.4,61.5,30.04,NE,34,4.0,18.0,97,0.16,,,0.44,meteohub,2013-07-03 14:56:00,
2013-07-03 11:00:00,62.6,61.7,30.04,East,93,4.0,16.0,97,0.21,,,0.50,meteohub,2013-07-03 15:00:00,
2013-07-03 11:04:00,62.4,61.5,30.03,East,83,6.0,16.0,97,0.21,,,0.50,meteohub,2013-07-03 15:04:00,
2013-07-03 11:06:00,62.6,61.7,30.04,ENE,71,3.0,14.0,97,0.21,,,0.51,meteohub,2013-07-03 15:06:00,
2013-07-03 11:11:00,62.6,61.7,30.04,ENE,60,8.0,13.0,97,0.23,,,0.53,meteohub,2013-07-03 15:11:00,
2013-07-03 11:15:00,62.6,61.7,30.04,NE,41,11.0,14.0,97,0.32,,,0.62,meteohub,2013-07-03 15:15:00,
2013-07-03 11:20:00,62.4,61.5,30.04,ENE,62,3.0,14.0,97,0.40,,,0.70,meteohub,2013-07-03 15:20:00,
2013-07-03 11:25:00,62.6,61.7,30.04,ENE,71,2.0,14.0,97,0.40,,,0.72,meteohub,2013-07-03 15:25:00,
2013-07-03 11:28:00,62.8,61.9,30.04,NE,56,7.0,14.0,97,0.40,,,0.72,meteohub,2013-07-03 15:28:00,
2013-07-03 11:33:00,62.8,61.9,30.05,ESE,108,3.0,11.0,97,0.34,,,0.72,meteohub,2013-07-03 15:33:00,
2013-07-03 11:38:00,63.0,62.1,30.05,SSE,157,2.0,12.0,97,0.34,,,0.73,meteohub,2013-07-03 15:38:00,
2013-07-03 11:40:00,63.0,62.1,30.05,ENE,75,5.0,12.0,97,0.37,,,0.76,meteohub,2013-07-03 15:40:00,
2013-07-03 11:45:00,63.0,62.1,30.05,SE,145,6.0,12.0,97,0.37,,,0.76,meteohub,2013-07-03 15:45:00,
2013-07-03 11:50:00,63.0,62.1,30.05,ESE,115,2.0,11.0,97,0.36,,,0.76,meteohub,2013-07-03 15:50:00,
2013-07-03 11:52:00,63.1,62.2,30.05,SE,136,4.0,11.0,97,0.36,,,0.76,meteohub,2013-07-03 15:52:00,
2013-07-03 11:57:00,63.1,62.2,30.05,ESE,104,4.0,12.0,97,0.29,,,0.76,meteohub,2013-07-03 15:57:00,
2013-07-03 12:03:00,63.3,62.4,30.05,SSE,164,3.0,15.0,97,0.26,,,0.76,meteohub,2013-07-03 16:03:00,
2013-07-03 12:08:00,63.3,62.4,30.05,ESE,103,2.0,15.0,97,0.25,,,0.76,meteohub,2013-07-03 16:08:00,
2013-07-03 12:13:00,63.9,63.0,30.04,ESE,107,6.0,21.0,97,0.21,,,0.76,meteohub,2013-07-03 16:13:00,
2013-07-03 12:18:00,63.9,63.0,30.04,SE,132,2.0,21.0,97,0.13,,,0.76,meteohub,2013-07-03 16:18:00,
2013-07-03 12:23:00,64.0,63.1,30.04,SE,142,5.0,11.0,97,0.05,,,0.76,meteohub,2013-07-03 16:23:00,
2013-07-03 12:28:00,64.0,63.0,30.04,East,92,7.0,11.0,96,0.04,,,0.76,meteohub,2013-07-03 16:28:00,
2013-07-03 12:34:00,64.2,63.1,30.04,East,99,5.0,10.0,96,0.03,,,0.76,meteohub,2013-07-03 16:34:00,
2013-07-03 12:39:00,64.4,63.3,30.04,ESE,115,3.0,10.0,96,0.01,,,0.76,meteohub,2013-07-03 16:39:00,
2013-07-03 12:44:00,64.2,63.1,30.04,East,87,2.0,10.0,96,0.00,,,0.76,meteohub,2013-07-03 16:44:00,
2013-07-03 12:49:00,64.2,63.1,30.04,NE,46,4.0,10.0,96,0.00,,,0.76,meteohub,2013-07-03 16:49:00,
2013-07-03 12:55:00,64.0,63.0,30.04,SE,125,2.0,8.0,96,0.00,,,0.76,meteohub,2013-07-03 16:55:00,
2013-07-03 13:00:00,64.0,63.0,30.04,ENE,78,2.0,11.0,96,0.00,,,0.76,meteohub,2013-07-03 17:00:00,
2013-07-03 13:05:00,64.0,63.0,30.04,SSE,160,1.0,11.0,96,0.04,,,0.80,meteohub,2013-07-03 17:05:00,
2013-07-03 13:10:00,63.9,62.8,30.04,ESE,120,5.0,11.0,96,0.12,,,0.88,meteohub,2013-07-03 17:10:00,
2013-07-03 13:15:00,64.0,63.0,30.04,South,183,2.0,11.0,96,0.13,,,0.89,meteohub,2013-07-03 17:15:00,
2013-07-03 13:20:00,64.6,63.5,30.04,ESE,115,3.0,11.0,96,0.13,,,0.89,meteohub,2013-07-03 17:20:00,
2013-07-03 13:25:00,64.4,63.3,30.04,ENE,73,8.0,11.0,96,0.13,,,0.89,meteohub,2013-07-03 17:25:00,
2013-07-03 13:30:00,64.2,63.1,30.04,East,99,3.0,11.0,96,0.13,,,0.89,meteohub,2013-07-03 17:30:00,
2013-07-03 13:35:00,64.0,63.0,30.04,SE,142,2.0,10.0,96,0.17,,,0.93,meteohub,2013-07-03 17:35:00,
2013-07-03 13:40:00,64.2,63.1,30.03,NE,41,2.0,10.0,96,0.18,,,0.94,meteohub,2013-07-03 17:40:00,
2013-07-03 13:45:00,64.4,63.5,30.03,East,81,6.0,14.0,97,0.18,,,0.94,meteohub,2013-07-03 17:45:00,
2013-07-03 13:51:00,64.6,63.5,30.03,SE,142,4.0,20.0,96,0.18,,,0.94,meteohub,2013-07-03 17:51:00,
2013-07-03 13:56:00,64.6,63.5,30.04,NE,49,8.0,20.0,96,0.18,,,0.94,meteohub,2013-07-03 17:56:00,
2013-07-03 14:01:00,64.8,63.7,30.04,ENE,64,6.0,20.0,96,0.17,,,0.94,meteohub,2013-07-03 18:01:00,
2013-07-03 14:06:00,64.4,63.0,30.04,SE,134,6.0,21.0,95,0.10,,,0.94,meteohub,2013-07-03 18:06:00,
2013-07-03 14:11:00,64.2,62.8,30.04,ENE,77,4.0,21.0,95,0.06,,,0.94,meteohub,2013-07-03 18:11:00,
2013-07-03 14:16:00,64.2,63.1,30.04,ENE,61,3.0,13.0,96,0.05,,,0.94,meteohub,2013-07-03 18:16:00,
2013-07-03 14:21:00,64.0,62.6,30.04,NE,55,1.0,11.0,95,0.05,,,0.94,meteohub,2013-07-03 18:21:00,
2013-07-03 14:26:00,64.0,63.0,30.04,NE,39,7.0,8.0,96,0.05,,,0.94,meteohub,2013-07-03 18:26:00,
2013-07-03 14:31:00,63.9,62.8,30.04,ENE,73,2.0,8.0,96,0.04,,,0.94,meteohub,2013-07-03 18:31:00,
2013-07-03 14:36:00,64.2,63.1,30.04,East,81,2.0,10.0,96,0.00,,,0.94,meteohub,2013-07-03 18:36:00,
2013-07-03 14:41:00,64.6,63.5,30.04,ESE,102,2.0,11.0,96,0.00,,,0.94,meteohub,2013-07-03 18:41:00,
2013-07-03 14:46:00,65.1,64.0,30.04,NE,40,1.0,11.0,96,0.00,,,0.94,meteohub,2013-07-03 18:46:00,
2013-07-03 14:51:00,65.3,64.0,30.04,East,96,2.0,11.0,96,0.00,,,0.94,meteohub,2013-07-03 18:51:00,
2013-07-03 14:56:00,64.8,63.3,30.04,ENE,62,2.0,7.0,95,0.02,,,0.96,meteohub,2013-07-03 18:56:00,
2013-07-03 15:01:00,64.2,62.8,30.04,SE,129,1.0,7.0,95,0.10,,,1.04,meteohub,2013-07-03 19:01:00,
2013-07-03 15:06:00,63.9,62.4,30.04,ESE,109,3.0,9.0,95,0.11,,,1.05,meteohub,2013-07-03 19:06:00,
2013-07-03 15:11:00,63.7,62.6,30.04,SE,139,2.0,9.0,96,0.11,,,1.05,meteohub,2013-07-03 19:11:00,
2013-07-03 15:17:00,63.7,62.6,30.04,East,89,2.0,12.0,96,0.12,,,1.06,meteohub,2013-07-03 19:17:00,
2013-07-03 15:22:00,63.9,62.8,30.03,ENE,73,3.0,12.0,96,0.12,,,1.06,meteohub,2013-07-03 19:22:00,
2013-07-03 15:27:00,63.9,62.8,30.04,ESE,120,4.0,7.0,96,0.12,,,1.06,meteohub,2013-07-03 19:27:00,
2013-07-03 15:32:00,63.9,62.8,30.04,ENE,58,1.0,10.0,96,0.12,,,1.06,meteohub,2013-07-03 19:32:00,
2013-07-03 15:37:00,64.0,63.0,30.04,ENE,64,2.0,10.0,96,0.12,,,1.06,meteohub,2013-07-03 19:37:00,
2013-07-03 15:42:00,63.9,62.8,30.04,East,81,2.0,9.0,96,0.12,,,1.06,meteohub,2013-07-03 19:42:00,
2013-07-03 15:47:00,63.9,62.8,30.03,ESE,115,2.0,9.0,96,0.12,,,1.06,meteohub,2013-07-03 19:47:00,
2013-07-03 15:52:00,64.0,63.0,30.03,SE,139,3.0,6.0,96,0.12,,,1.06,meteohub,2013-07-03 19:52:00,
2013-07-03 15:57:00,64.4,63.3,30.04,SE,130,2.0,5.0,96,0.03,,,1.06,meteohub,2013-07-03 19:57:00,
2013-07-03 16:03:00,64.4,63.3,30.04,ENE,69,3.0,4.0,96,0.02,,,1.06,meteohub,2013-07-03 20:03:00,
2013-07-03 16:08:00,64.2,63.1,30.04,East,83,1.0,4.0,96,0.01,,,1.06,meteohub,2013-07-03 20:08:00,
2013-07-03 16:13:00,64.0,63.0,30.04,East,99,1.0,5.0,96,0.00,,,1.06,meteohub,2013-07-03 20:13:00,
2013-07-03 16:18:00,63.9,62.8,30.04,West,259,1.0,5.0,96,0.00,,,1.06,meteohub,2013-07-03 20:18:00,
2013-07-03 16:23:00,63.7,62.2,30.04,WSW,258,0.0,8.0,95,0.02,,,1.08,meteohub,2013-07-03 20:23:00,
2013-07-03 16:28:00,63.1,61.7,30.04,West,279,4.0,8.0,95,0.07,,,1.13,meteohub,2013-07-03 20:28:00,
2013-07-03 16:33:00,62.2,60.8,30.04,WNW,283,8.0,8.0,95,0.15,,,1.21,meteohub,2013-07-03 20:33:00,
2013-07-03 16:38:00,61.3,59.9,30.04,WNW,291,7.0,12.0,95,0.18,,,1.24,meteohub,2013-07-03 20:38:00,
2013-07-03 16:43:00,60.4,59.0,30.05,WNW,292,11.0,14.0,95,0.30,,,1.36,meteohub,2013-07-03 20:43:00,
2013-07-03 16:48:00,59.7,58.6,30.04,SW,216,2.0,20.0,96,0.50,,,1.56,meteohub,2013-07-03 20:48:00,
2013-07-03 16:53:00,59.4,58.3,30.06,West,273,8.0,20.0,96,0.59,,,1.65,meteohub,2013-07-03 20:53:00,
2013-07-03 16:59:00,58.8,57.7,30.07,West,279,4.0,20.0,96,0.76,,,1.82,meteohub,2013-07-03 20:59:00,
2013-07-03 17:04:00,58.6,57.6,30.08,WSW,248,1.0,13.0,96,0.86,,,1.92,meteohub,2013-07-03 21:04:00,
2013-07-03 17:09:00,58.5,57.4,30.08,WNW,297,5.0,13.0,96,0.87,,,1.93,meteohub,2013-07-03 21:09:00,
2013-07-03 17:15:00,58.1,57.0,30.07,WNW,287,8.0,12.0,96,0.88,,,1.94,meteohub,2013-07-03 21:15:00,
2013-07-03 17:20:00,57.7,56.7,30.07,WNW,283,6.0,12.0,96,0.85,,,1.95,meteohub,2013-07-03 21:20:00,
2013-07-03 17:25:00,57.6,56.5,30.08,West,279,7.0,12.0,96,0.85,,,1.95,meteohub,2013-07-03 21:25:00,
2013-07-03 17:30:00,57.4,56.3,30.09,West,277,0.0,18.0,96,0.73,,,1.95,meteohub,2013-07-03 21:30:00,
2013-07-03 17:35:00,57.6,56.7,30.10,NE,34,2.0,18.0,97,0.67,,,1.95,meteohub,2013-07-03 21:35:00,
2013-07-03 17:40:00,57.6,56.7,30.10,NE,34,0.0,11.0,97,0.54,,,1.95,meteohub,2013-07-03 21:40:00,
2013-07-03 17:45:00,57.7,56.8,30.09,North,1,1.0,2.0,97,0.36,,,1.95,meteohub,2013-07-03 21:45:00,
2013-07-03 17:50:00,57.7,56.8,30.08,WNW,291,4.0,5.0,97,0.26,,,1.95,meteohub,2013-07-03 21:50:00,
2013-07-03 17:55:00,57.7,56.8,30.07,WNW,285,2.0,7.0,97,0.10,,,1.95,meteohub,2013-07-03 21:55:00,
2013-07-03 18:00:00,57.6,56.7,30.08,WNW,291,0.0,7.0,97,0.03,,,1.95,meteohub,2013-07-03 22:00:00,
2013-07-03 18:05:00,57.6,56.7,30.08,WNW,291,0.0,7.0,97,0.02,,,1.95,meteohub,2013-07-03 22:05:00,
2013-07-03 18:10:00,57.6,56.7,30.08,WNW,291,0.0,4.0,97,0.00,,,1.95,meteohub,2013-07-03 22:10:00,
2013-07-03 18:16:00,57.6,56.7,30.08,WNW,291,1.0,1.0,97,0.00,,,1.95,meteohub,2013-07-03 22:16:00,
2013-07-03 18:21:00,57.6,56.7,30.07,WNW,291,0.0,1.0,97,0.00,,,1.95,meteohub,2013-07-03 22:21:00,
2013-07-03 18:26:00,57.7,56.8,30.08,WNW,291,0.0,1.0,97,0.00,,,1.95,meteohub,2013-07-03 22:26:00,
2013-07-03 18:31:00,57.7,56.8,30.08,WNW,291,1.0,2.0,97,0.00,,,1.95,meteohub,2013-07-03 22:31:00,
2013-07-03 18:36:00,57.7,56.8,30.08,WNW,291,0.0,2.0,97,0.00,,,1.95,meteohub,2013-07-03 22:36:00,
2013-07-03 18:41:00,57.7,56.8,30.09,WNW,291,0.0,2.0,97,0.00,,,1.95,meteohub,2013-07-03 22:41:00,
2013-07-03 18:47:00,57.7,56.8,30.08,WNW,291,0.0,2.0,97,0.00,,,1.95,meteohub,2013-07-03 22:47:00,
2013-07-03 18:52:00,57.7,56.8,30.08,WNW,291,0.0,1.0,97,0.00,,,1.95,meteohub,2013-07-03 22:52:00,
2013-07-03 18:57:00,57.7,56.8,30.08,WNW,291,0.0,1.0,97,0.00,,,1.95,meteohub,2013-07-03 22:57:00,
2013-07-03 19:02:00,57.7,56.8,30.08,WNW,291,0.0,2.0,97,0.00,,,1.95,meteohub,2013-07-03 23:02:00,
2013-07-03 19:07:00,57.7,56.8,30.08,WNW,291,0.0,2.0,97,0.00,,,1.95,meteohub,2013-07-03 23:07:00,
2013-07-03 19:12:00,57.7,56.8,30.08,WNW,291,0.0,0.0,97,0.00,,,1.95,meteohub,2013-07-03 23:12:00,
2013-07-03 19:17:00,57.7,56.8,30.09,WNW,291,0.0,1.0,97,0.00,,,1.95,meteohub,2013-07-03 23:17:00,
2013-07-03 19:22:00,57.7,56.8,30.08,WNW,291,1.0,1.0,97,0.00,,,1.95,meteohub,2013-07-03 23:22:00,
2013-07-03 19:27:00,57.7,56.8,30.09,WNW,291,0.0,1.0,97,0.00,,,1.95,meteohub,2013-07-03 23:27:00,
2013-07-03 19:32:00,57.7,56.8,30.09,WNW,291,0.0,1.0,97,0.00,,,1.95,meteohub,2013-07-03 23:32:00,
2013-07-03 19:37:00,57.7,56.8,30.09,WNW,291,0.0,1.0,97,0.00,,,1.95,meteohub,2013-07-03 23:37:00,
2013-07-03 19:43:00,57.9,57.0,30.09,WNW,291,0.0,2.0,97,0.00,,,1.95,meteohub,2013-07-03 23:43:00,
2013-07-03 19:48:00,57.7,56.8,30.09,WNW,291,0.0,2.0,97,0.00,,,1.95,meteohub,2013-07-03 23:48:00,
2013-07-03 19:53:00,57.9,57.0,30.09,WNW,291,1.0,4.0,97,0.01,,,1.96,meteohub,2013-07-03 23:53:00,
2013-07-03 19:58:00,57.9,57.0,30.09,WNW,291,1.0,4.0,97,0.01,,,1.96,meteohub,2013-07-03 23:58:00,
2013-07-03 20:03:00,57.9,57.0,30.09,WNW,291,0.0,2.0,97,0.01,,,1.96,meteohub,2013-07-04 00:03:00,
2013-07-03 20:08:00,57.9,57.0,30.09,WNW,291,0.0,2.0,97,0.01,,,0.00,meteohub,2013-07-04 00:08:00,
2013-07-03 20:14:00,57.9,57.0,30.09,WNW,291,0.0,2.0,97,0.01,,,0.00,meteohub,2013-07-04 00:14:00,
2013-07-03 20:19:00,57.9,57.0,30.09,WNW,291,0.0,2.0,97,0.01,,,0.00,meteohub,2013-07-04 00:19:00,
2013-07-03 20:24:00,57.9,57.0,30.09,WNW,291,0.0,1.0,97,0.01,,,0.00,meteohub,2013-07-04 00:24:00,
2013-07-03 20:29:00,57.9,57.0,30.09,WNW,291,1.0,1.0,97,0.01,,,0.00,meteohub,2013-07-04 00:29:00,
2013-07-03 20:34:00,57.9,57.0,30.09,WNW,291,0.0,1.0,97,0.01,,,0.00,meteohub,2013-07-04 00:34:00,
2013-07-03 20:40:00,57.9,57.0,30.09,WNW,291,0.0,1.0,97,0.01,,,0.00,meteohub,2013-07-04 00:40:00,
2013-07-03 20:45:00,57.9,57.0,30.09,WNW,291,0.0,1.0,97,0.01,,,0.00,meteohub,2013-07-04 00:45:00,
2013-07-03 20:50:00,57.9,57.0,30.09,WNW,291,0.0,1.0,97,0.00,,,0.00,meteohub,2013-07-04 00:50:00,
2013-07-03 20:55:00,57.9,57.0,30.09,WNW,291,0.0,1.0,97,0.00,,,0.00,meteohub,2013-07-04 00:55:00,
2013-07-03 21:00:00,58.1,57.2,30.09,WNW,291,0.0,1.0,97,0.00,,,0.00,meteohub,2013-07-04 01:00:00,
2013-07-03 21:06:00,58.1,57.2,30.09,WNW,291,0.0,1.0,97,0.00,,,0.00,meteohub,2013-07-04 01:06:00,
2013-07-03 21:11:00,58.3,57.4,30.09,WNW,291,0.0,1.0,97,0.00,,,0.00,meteohub,2013-07-04 01:11:00,
2013-07-03 21:16:00,58.3,57.4,30.08,WNW,291,0.0,1.0,97,0.00,,,0.00,meteohub,2013-07-04 01:16:00,
2013-07-03 21:21:00,58.3,57.4,30.08,WNW,298,0.0,1.0,97,0.00,,,0.00,meteohub,2013-07-04 01:21:00,
2013-07-03 21:27:00,58.3,57.7,30.08,WNW,298,0.0,1.0,98,0.00,,,0.00,meteohub,2013-07-04 01:27:00,
2013-07-03 21:32:00,58.3,57.7,30.08,WNW,298,0.0,1.0,98,0.00,,,0.00,meteohub,2013-07-04 01:32:00,
2013-07-03 21:37:00,58.3,57.7,30.07,WNW,298,1.0,2.0,98,0.00,,,0.00,meteohub,2013-07-04 01:37:00,
2013-07-03 21:43:00,58.3,57.7,30.07,WNW,298,0.0,2.0,98,0.00,,,0.00,meteohub,2013-07-04 01:43:00,
2013-07-03 21:48:00,58.3,57.7,30.07,WNW,298,0.0,2.0,98,0.00,,,0.00,meteohub,2013-07-04 01:48:00,
2013-07-03 21:53:00,58.3,57.7,30.08,WNW,298,0.0,2.0,98,0.00,,,0.00,meteohub,2013-07-04 01:53:00,
2013-07-03 21:59:00,58.3,57.7,30.08,WNW,298,0.0,2.0,98,0.00,,,0.00,meteohub,2013-07-04 01:59:00,
2013-07-03 22:04:00,58.1,57.2,30.08,WNW,298,0.0,2.0,97,0.00,,,0.00,meteohub,2013-07-04 02:04:00,
2013-07-03 22:09:00,58.1,57.2,30.09,WNW,298,0.0,2.0,97,0.00,,,0.00,meteohub,2013-07-04 02:09:00,
2013-07-03 22:14:00,58.1,57.2,30.09,WNW,298,0.0,2.0,97,0.00,,,0.00,meteohub,2013-07-04 02:14:00,
2013-07-03 22:20:00,58.1,57.2,30.09,WNW,298,0.0,1.0,97,0.00,,,0.00,meteohub,2013-07-04 02:20:00,
2013-07-03 22:25:00,58.1,57.2,30.09,WNW,298,0.0,1.0,97,0.00,,,0.00,meteohub,2013-07-04 02:25:00,
2013-07-03 22:30:00,58.1,57.2,30.09,WNW,298,1.0,1.0,97,0.00,,,0.00,meteohub,2013-07-04 02:30:00,
2013-07-03 22:36:00,58.1,57.2,30.10,WNW,298,0.0,1.0,97,0.00,,,0.00,meteohub,2013-07-04 02:36:00,
2013-07-03 22:41:00,57.9,57.0,30.10,WNW,298,0.0,1.0,97,0.00,,,0.00,meteohub,2013-07-04 02:41:00,
2013-07-03 22:47:00,57.9,57.0,30.10,WNW,298,0.0,1.0,97,0.00,,,0.00,meteohub,2013-07-04 02:47:00,
2013-07-03 22:52:00,57.9,57.0,30.11,WNW,298,0.0,1.0,97,0.00,,,0.00,meteohub,2013-07-04 02:52:00,
2013-07-03 22:57:00,57.9,57.0,30.11,WNW,298,0.0,0.0,97,0.00,,,0.00,meteohub,2013-07-04 02:57:00,
2013-07-03 23:02:00,57.9,57.0,30.11,WNW,298,0.0,0.0,97,0.00,,,0.00,meteohub,2013-07-04 03:02:00,
2013-07-03 23:07:00,57.9,57.0,30.11,WNW,298,0.0,1.0,97,0.00,,,0.00,meteohub,2013-07-04 03:07:00,
2013-07-03 23:12:00,58.1,57.2,30.11,WNW,298,0.0,1.0,97,0.00,,,0.00,meteohub,2013-07-04 03:12:00,
2013-07-03 23:18:00,58.1,57.2,30.11,WNW,298,0.0,1.0,97,0.00,,,0.00,meteohub,2013-07-04 03:18:00,
2013-07-03 23:23:00,58.3,57.4,30.11,WNW,298,1.0,1.0,97,0.00,,,0.00,meteohub,2013-07-04 03:23:00,
2013-07-03 23:28:00,58.3,57.7,30.11,WNW,298,0.0,2.0,98,0.00,,,0.00,meteohub,2013-07-04 03:28:00,
2013-07-03 23:33:00,58.3,57.7,30.11,WNW,298,0.0,2.0,98,0.00,,,0.00,meteohub,2013-07-04 03:33:00,
2013-07-03 23:38:00,58.5,57.9,30.11,NNE,27,1.0,3.0,98,0.00,,,0.00,meteohub,2013-07-04 03:38:00,
2013-07-03 23:44:00,58.8,58.3,30.12,NE,35,1.0,3.0,98,0.00,,,0.00,meteohub,2013-07-04 03:44:00,
2013-07-03 23:49:00,59.0,58.5,30.12,NE,46,4.0,4.0,98,0.00,,,0.00,meteohub,2013-07-04 03:49:00,
2013-07-03 23:54:00,59.0,58.5,30.11,NE,48,2.0,4.0,98,0.00,,,0.00,meteohub,2013-07-04 03:54:00,
2013-07-03 23:59:00,59.2,58.6,30.11,NE,53,2.0,4.0,98,0.00,,,0.00,meteohub,2013-07-04 03:59:00,